User: anonymous   Login
Location: Newark
(49.3000°N, 9.4667°E)
Time: 08:44:45
(UTC+00:00)
Language:

Tiros 1 despin weight - Orbit

View from above orbital plane
View from above orbital plane
View from above satellite
View from above satellite

Ground track
Ground track

The orbit data is extracted from the following two-line orbital elements,

1   115U 60002D   19143.00723035 -.00000063  00000-0  19693-4 0  9995
2   115  48.1678 356.3262 0034856 323.2024  36.6497 14.83443218154858
Epoch (UTC): 23 May 2019 00:10:24
Eccentricity: 0.0034856
inclination: 48.1678°
perigee height: 594 km
apogee height: 643 km
right ascension of ascending node: 356.3262°
argument of perigee: 323.2024°
revolutions per day: 14.83443218
mean anomaly at epoch: 36.6497°
orbit number at epoch: 15485

The dashed part of the orbit path shows where the satellite is in the earth's shadow,  

DLR